Time,TemperatureF,DewpointF,PressureIn,WindDirection,WindDirectionDegrees,WindSpeedMPH,WindSpeedGustMPH,Humidity,HourlyPrecipIn,Conditions,Clouds,dailyrainin,SoftwareType,DateUTC
2013-02-07 00:02:00,71.1,63.9,29.93,East,90,3.2,-999.0,78,-99.99,,,0.00,Acu-Link.com,2013-02-07 05:02:00,
2013-02-07 00:17:00,70.9,64.1,29.92,ESE,112,5.8,-999.0,79,-99.99,,,0.00,Acu-Link.com,2013-02-07 05:17:00,
2013-02-07 00:32:00,70.5,64.4,29.92,ESE,112,3.7,-999.0,81,-99.99,,,0.00,Acu-Link.com,2013-02-07 05:32:00,
2013-02-07 00:48:00,70.7,64.6,29.92,ESE,112,3.2,-999.0,81,-99.99,,,0.00,Acu-Link.com,2013-02-07 05:48:00,
2013-02-07 01:03:00,70.7,64.2,29.92,SE,135,3.7,-999.0,80,-99.99,,,0.00,Acu-Link.com,2013-02-07 06:03:00,
2013-02-07 01:18:00,70.3,63.5,29.92,ESE,112,3.7,-999.0,79,-99.99,,,0.00,Acu-Link.com,2013-02-07 06:18:00,
2013-02-07 01:33:00,70.0,63.2,29.92,ESE,112,2.2,-999.0,79,-99.99,,,0.00,Acu-Link.com,2013-02-07 06:33:00,
2013-02-07 01:48:00,70.0,63.2,29.92,SE,135,2.2,-999.0,79,-99.99,,,0.00,Acu-Link.com,2013-02-07 06:48:00,
2013-02-07 02:03:00,69.8,63.3,29.91,ESE,112,3.2,-999.0,80,-99.99,,,0.00,Acu-Link.com,2013-02-07 07:03:00,
2013-02-07 02:18:00,69.4,63.0,29.91,ESE,112,2.2,-999.0,80,-99.99,,,0.00,Acu-Link.com,2013-02-07 07:18:00,
2013-02-07 02:33:00,69.4,63.0,29.91,ESE,112,1.7,-999.0,80,-99.99,,,0.00,Acu-Link.com,2013-02-07 07:33:00,
2013-02-07 02:48:00,69.3,63.2,29.91,ESE,112,2.2,-999.0,81,-99.99,,,0.00,Acu-Link.com,2013-02-07 07:48:00,
2013-02-07 03:04:00,69.1,63.0,29.91,ESE,112,3.2,-999.0,81,-99.99,,,0.00,Acu-Link.com,2013-02-07 08:04:00,
2013-02-07 03:19:00,69.1,63.0,29.90,ESE,112,3.7,-999.0,81,-99.99,,,0.00,Acu-Link.com,2013-02-07 08:19:00,
2013-02-07 03:34:00,68.9,62.8,29.90,ESE,112,4.2,-999.0,81,-99.99,,,0.00,Acu-Link.com,2013-02-07 08:34:00,
2013-02-07 03:50:00,68.7,62.6,29.90,ESE,112,2.2,-999.0,81,-99.99,,,0.00,Acu-Link.com,2013-02-07 08:50:00,
2013-02-07 04:05:00,68.2,62.5,29.90,ESE,112,1.7,-999.0,82,-99.99,,,0.00,Acu-Link.com,2013-02-07 09:05:00,
2013-02-07 04:20:00,67.8,62.4,29.90,ESE,112,0.0,-999.0,83,-99.99,,,0.00,Acu-Link.com,2013-02-07 09:20:00,
2013-02-07 04:35:00,67.3,62.3,29.89,ESE,112,0.0,-999.0,84,-99.99,,,0.00,Acu-Link.com,2013-02-07 09:35:00,
2013-02-07 04:50:00,66.7,62.0,29.89,ESE,112,0.0,-999.0,85,-99.99,,,0.00,Acu-Link.com,2013-02-07 09:50:00,
2013-02-07 05:05:00,66.7,62.0,29.88,ESE,112,2.7,-999.0,85,-99.99,,,0.00,Acu-Link.com,2013-02-07 10:05:00,
2013-02-07 05:20:00,66.7,62.0,29.88,ESE,112,2.2,-999.0,85,-99.99,,,0.00,Acu-Link.com,2013-02-07 10:20:00,
2013-02-07 05:35:00,66.7,62.0,29.88,ESE,112,1.1,-999.0,85,-99.99,,,0.00,Acu-Link.com,2013-02-07 10:35:00,
2013-02-07 05:50:00,66.4,61.7,29.88,ESE,112,2.2,-999.0,85,-99.99,,,0.00,Acu-Link.com,2013-02-07 10:50:00,
2013-02-07 06:06:00,66.6,61.9,29.89,ESE,112,2.7,-999.0,85,-99.99,,,0.00,Acu-Link.com,2013-02-07 11:06:00,
2013-02-07 06:21:00,66.7,62.0,29.89,ESE,112,2.2,-999.0,85,-99.99,,,0.00,Acu-Link.com,2013-02-07 11:21:00,
2013-02-07 06:36:00,66.6,61.9,29.89,ESE,112,1.7,-999.0,85,-99.99,,,0.00,Acu-Link.com,2013-02-07 11:36:00,
2013-02-07 06:51:00,66.2,62.2,29.91,ESE,112,0.0,-999.0,87,-99.99,,,0.00,Acu-Link.com,2013-02-07 11:51:00,
2013-02-07 07:06:00,66.2,62.2,29.91,ESE,112,0.0,-999.0,87,-99.99,,,0.00,Acu-Link.com,2013-02-07 12:06:00,
2013-02-07 07:21:00,65.8,62.5,29.91,ESE,112,0.0,-999.0,89,-99.99,,,0.00,Acu-Link.com,2013-02-07 12:21:00,
2013-02-07 07:36:00,68.2,63.5,29.91,ESE,112,0.0,-999.0,85,-99.99,,,0.00,Acu-Link.com,2013-02-07 12:36:00,
2013-02-07 07:51:00,70.5,64.4,29.93,ESE,112,0.0,-999.0,81,-99.99,,,0.00,Acu-Link.com,2013-02-07 12:51:00,
2013-02-07 08:06:00,77.0,65.2,29.92,ESE,112,0.0,-999.0,67,-99.99,,,0.00,Acu-Link.com,2013-02-07 13:06:00,
2013-02-07 08:21:00,78.3,65.1,29.93,ESE,112,0.0,-999.0,64,-99.99,,,0.00,Acu-Link.com,2013-02-07 13:21:00,
2013-02-07 08:37:00,74.7,65.1,29.93,ESE,112,0.0,-999.0,72,-99.99,,,0.00,Acu-Link.com,2013-02-07 13:37:00,
2013-02-07 08:52:00,75.6,64.7,29.92,East,90,4.2,-999.0,69,-99.99,,,0.00,Acu-Link.com,2013-02-07 13:52:00,
2013-02-07 09:07:00,76.6,65.2,29.93,ESE,112,7.3,-999.0,68,-99.99,,,0.00,Acu-Link.com,2013-02-07 14:07:00,
2013-02-07 09:22:00,76.8,65.0,29.93,SE,135,7.8,-999.0,67,-99.99,,,0.00,Acu-Link.com,2013-02-07 14:22:00,
2013-02-07 09:37:00,77.0,64.3,29.93,ESE,112,7.8,-999.0,65,-99.99,,,0.00,Acu-Link.com,2013-02-07 14:37:00,
2013-02-07 09:52:00,77.5,64.8,29.92,SE,135,4.7,-999.0,65,-99.99,,,0.00,Acu-Link.com,2013-02-07 14:52:00,
2013-02-07 10:07:00,78.3,65.5,29.92,ESE,112,6.8,-999.0,65,-99.99,,,0.00,Acu-Link.com,2013-02-07 15:07:00,
2013-02-07 10:22:00,78.4,65.2,29.93,ESE,112,5.3,-999.0,64,-99.99,,,0.00,Acu-Link.com,2013-02-07 15:22:00,
2013-02-07 10:37:00,78.4,63.8,29.92,ESE,112,3.7,-999.0,61,-99.99,,,0.00,Acu-Link.com,2013-02-07 15:37:00,
2013-02-07 10:53:00,78.6,65.4,29.92,SE,135,6.3,-999.0,64,-99.99,,,0.00,Acu-Link.com,2013-02-07 15:53:00,
2013-02-07 11:08:00,78.4,65.6,29.91,ESE,112,3.7,-999.0,65,-99.99,,,0.00,Acu-Link.com,2013-02-07 16:08:00,
2013-02-07 11:23:00,77.5,65.2,29.90,SSE,157,5.8,-999.0,66,-99.99,,,0.00,Acu-Link.com,2013-02-07 16:23:00,
2013-02-07 11:38:00,79.2,66.0,29.89,ESE,112,3.7,-999.0,64,-99.99,,,0.00,Acu-Link.com,2013-02-07 16:38:00,
2013-02-07 11:53:00,79.3,66.5,29.88,ESE,112,6.3,-999.0,65,-99.99,,,0.00,Acu-Link.com,2013-02-07 16:53:00,
2013-02-07 12:08:00,77.4,66.4,29.88,East,90,4.7,-999.0,69,-99.99,,,0.00,Acu-Link.com,2013-02-07 17:08:00,
2013-02-07 12:24:00,79.3,66.5,29.85,East,90,9.4,-999.0,65,-99.99,,,0.00,Acu-Link.com,2013-02-07 17:24:00,
2013-02-07 12:39:00,78.1,66.2,29.86,SE,135,7.8,-999.0,67,-99.99,,,0.00,Acu-Link.com,2013-02-07 17:39:00,
2013-02-07 12:54:00,80.2,66.0,29.84,SE,135,5.8,-999.0,62,-99.99,,,0.00,Acu-Link.com,2013-02-07 17:54:00,
2013-02-07 13:09:00,80.6,65.9,29.84,South,180,2.2,-999.0,61,-99.99,,,0.00,Acu-Link.com,2013-02-07 18:09:00,
2013-02-07 13:24:00,80.6,65.9,29.84,South,180,7.3,-999.0,61,-99.99,,,0.00,Acu-Link.com,2013-02-07 18:24:00,
2013-02-07 13:39:00,80.1,65.9,29.83,SE,135,6.8,-999.0,62,-99.99,,,0.00,Acu-Link.com,2013-02-07 18:39:00,
2013-02-07 13:54:00,81.3,65.6,29.82,SE,135,7.8,-999.0,59,-99.99,,,0.00,Acu-Link.com,2013-02-07 18:54:00,
2013-02-07 14:09:00,81.9,64.6,29.82,SW,225,7.3,-999.0,56,-99.99,,,0.00,Acu-Link.com,2013-02-07 19:09:00,
2013-02-07 14:24:00,80.6,62.9,29.81,SSE,157,5.3,-999.0,55,-99.99,,,0.00,Acu-Link.com,2013-02-07 19:24:00,
2013-02-07 14:40:00,80.2,63.6,29.81,ESE,112,9.4,-999.0,57,-99.99,,,0.00,Acu-Link.com,2013-02-07 19:40:00,
2013-02-07 14:55:00,81.0,62.8,29.81,SSW,202,5.8,-999.0,54,-99.99,,,0.00,Acu-Link.com,2013-02-07 19:55:00,
2013-02-07 15:10:00,79.7,63.1,29.80,SSW,202,7.3,-999.0,57,-99.99,,,0.00,Acu-Link.com,2013-02-07 20:10:00,
2013-02-07 15:25:00,79.7,63.6,29.80,South,180,7.8,-999.0,58,-99.99,,,0.00,Acu-Link.com,2013-02-07 20:25:00,
2013-02-07 15:40:00,79.7,64.1,29.80,South,180,4.7,-999.0,59,-99.99,,,0.00,Acu-Link.com,2013-02-07 20:40:00,
2013-02-07 15:55:00,80.6,64.4,29.80,South,180,2.7,-999.0,58,-99.99,,,0.00,Acu-Link.com,2013-02-07 20:55:00,
2013-02-07 16:10:00,79.9,64.8,29.80,ESE,112,5.3,-999.0,60,-99.99,,,0.00,Acu-Link.com,2013-02-07 21:10:00,
2013-02-07 16:25:00,79.2,65.0,29.80,South,180,6.3,-999.0,62,-99.99,,,0.00,Acu-Link.com,2013-02-07 21:25:00,
2013-02-07 16:41:00,78.6,65.4,29.79,SSE,157,4.7,-999.0,64,-99.99,,,0.00,Acu-Link.com,2013-02-07 21:41:00,
2013-02-07 16:56:00,77.9,66.0,29.80,SE,135,5.3,-999.0,67,-99.99,,,0.00,Acu-Link.com,2013-02-07 21:56:00,
2013-02-07 17:11:00,77.7,66.3,29.80,ESE,112,3.7,-999.0,68,-99.99,,,0.00,Acu-Link.com,2013-02-07 22:11:00,
2013-02-07 17:26:00,76.6,66.1,29.81,ESE,112,6.8,-999.0,70,-99.99,,,0.00,Acu-Link.com,2013-02-07 22:26:00,
2013-02-07 17:42:00,76.1,66.0,29.81,SE,135,3.7,-999.0,71,-99.99,,,0.00,Acu-Link.com,2013-02-07 22:42:00,
2013-02-07 17:58:00,75.4,66.5,29.81,South,180,3.7,-999.0,74,-99.99,,,0.00,Acu-Link.com,2013-02-07 22:58:00,
2013-02-07 18:13:00,74.5,66.4,29.82,ESE,112,2.2,-999.0,76,-99.99,,,0.00,Acu-Link.com,2013-02-07 23:13:00,
2013-02-07 18:28:00,73.9,66.2,29.81,SE,135,2.2,-999.0,77,-99.99,,,0.00,Acu-Link.com,2013-02-07 23:28:00,
2013-02-07 18:43:00,73.8,66.5,29.82,SE,135,3.7,-999.0,78,-99.99,,,0.00,Acu-Link.com,2013-02-07 23:43:00,
2013-02-07 18:58:00,73.6,66.3,29.82,SSE,157,3.7,-999.0,78,-99.99,,,0.00,Acu-Link.com,2013-02-07 23:58:00,
2013-02-07 19:13:00,73.4,66.1,29.83,SSE,157,2.7,-999.0,78,-99.99,,,0.00,Acu-Link.com,2013-02-08 00:13:00,
2013-02-07 19:28:00,73.4,66.1,29.83,SSE,157,3.7,-999.0,78,-99.99,,,0.00,Acu-Link.com,2013-02-08 00:28:00,
2013-02-07 19:43:00,73.4,66.1,29.84,South,180,4.2,-999.0,78,-99.99,,,0.00,Acu-Link.com,2013-02-08 00:43:00,
2013-02-07 19:58:00,73.0,65.7,29.84,South,180,3.2,-999.0,78,-99.99,,,0.00,Acu-Link.com,2013-02-08 00:58:00,
2013-02-07 20:14:00,72.7,65.4,29.84,South,180,3.2,-999.0,78,-99.99,,,0.00,Acu-Link.com,2013-02-08 01:14:00,
2013-02-07 20:29:00,72.5,65.2,29.84,South,180,2.7,-999.0,78,-99.99,,,0.00,Acu-Link.com,2013-02-08 01:29:00,
2013-02-07 20:44:00,72.1,64.9,29.84,SSW,202,3.7,-999.0,78,-99.99,,,0.00,Acu-Link.com,2013-02-08 01:44:00,
2013-02-07 20:59:00,72.0,64.8,29.84,SSW,202,2.7,-999.0,78,-99.99,,,0.00,Acu-Link.com,2013-02-08 01:59:00,
2013-02-07 21:14:00,71.8,64.6,29.84,South,180,3.7,-999.0,78,-99.99,,,0.00,Acu-Link.com,2013-02-08 02:14:00,
2013-02-07 21:29:00,71.2,64.0,29.84,South,180,4.7,-999.0,78,-99.99,,,0.00,Acu-Link.com,2013-02-08 02:29:00,
2013-02-07 21:44:00,70.9,63.7,29.83,South,180,4.2,-999.0,78,-99.99,,,0.00,Acu-Link.com,2013-02-08 02:44:00,
2013-02-07 21:59:00,70.7,63.5,29.82,SSW,202,4.2,-999.0,78,-99.99,,,0.00,Acu-Link.com,2013-02-08 02:59:00,
2013-02-07 22:14:00,70.3,63.5,29.82,SSW,202,2.7,-999.0,79,-99.99,,,0.00,Acu-Link.com,2013-02-08 03:14:00,
2013-02-07 22:30:00,69.8,63.3,29.83,SSW,202,2.7,-999.0,80,-99.99,,,0.00,Acu-Link.com,2013-02-08 03:30:00,
2013-02-07 22:45:00,69.4,63.7,29.83,SSW,202,2.7,-999.0,82,-99.99,,,0.00,Acu-Link.com,2013-02-08 03:45:00,
2013-02-07 23:00:00,68.9,63.5,29.84,SSW,202,2.2,-999.0,83,-99.99,,,0.00,Acu-Link.com,2013-02-08 04:00:00,
2013-02-07 23:17:00,68.5,63.8,29.82,South,180,4.2,-999.0,85,-99.99,,,0.00,Acu-Link.com,2013-02-08 04:17:00,
2013-02-07 23:33:00,68.9,64.2,29.81,South,180,5.3,-999.0,85,-99.99,,,0.00,Acu-Link.com,2013-02-08 04:33:00,
2013-02-07 23:49:00,69.3,64.6,29.80,South,180,4.7,-999.0,85,-99.99,,,0.00,Acu-Link.com,2013-02-08 04:49:00,